[[{"header":{"parameterUnit":"m.s-1","parameterCategory":1,"la1":30.2991,"la2":30.254,"lo1":-89.0895,"lo2":-89.0444,"dy":0.0017,"dx":0.0017,"nx":28,"ny":28,"refTime":"2025-09-19T09:00:00:Z","depth":0,"parameterNumber":2,"parameterNumberName":"U-component_of_WINDS"},"data":[0,0,0,0,0,0,0,0,0,0,0,0,0,0,0,0,0,0,0,0,0,0,0,0,0,0,0,0,0,0,0,0,0,0,0,0,0,0,0,0,0,0,0,0,0,0,0,0,0,0,0,0,0,0,0,0,0,0,0.7791,0.7791,0,0.7789,0.7789,0.7789,0.7748,0.7746,0.7745,0.7744,0.7742,0.7743,0.7744,0,0,0,0,0,0,0,0,0,0,0,0,0,0.7759,0.776,0.7791,0.7791,0.7791,0.7789,0.7789,0.7789,0.7748,0.7746,0.7745,0.7744,0.7742,0.7743,0.7744,0,0,0,0,0,0,0,0,0,0,0,0,0,0.7767,0.776,0.7791,0.777,0.7768,0.7789,0.7789,0.7789,0.7748,0.7746,0.7745,0.7743,0.7742,0.7743,0.7744,0.7785,0,0,0.7749,0.7749,0,0,0,0,0,0,0,0,0.7766,0.7768,0.7773,0.7771,0.7769,0.7767,0.7777,0.7788,0.7748,0.7756,0.7744,0.7743,0.7752,0.7752,0.7755,0.7785,0.7785,0.7749,0.775,0.775,0.7751,0,0,0,0,0,0,0,0.7766,0.7768,0.779,0.7773,0.7771,0.7761,0.776,0.7779,0.7763,0.7755,0.7752,0.7752,0.775,0.7754,0.7755,0.7785,0.7749,0.775,0.7751,0.7751,0.7849,0.7851,0,0,0,0,0,0,0.7768,0.7768,0.779,0.779,0.7764,0.7763,0.7762,0.7769,0.7762,0.776,0.7754,0.775,0.7753,0.7753,0.7755,0.7803,0.775,0.7752,0.7752,0.7847,0.785,0.7851,0,0,0,0,0,0,0.7768,0.777,0.779,0.7778,0.778,0.7765,0.7773,0.777,0.7774,0.7761,0.7758,0.776,0.7751,0.7753,0.7778,0.7802,0.7752,0.7753,0.7845,0.7848,0.7851,0.7899,0,0,0,0,0,0,0.7767,0.7771,0.7785,0.7779,0.778,0.7813,0.7775,0.7771,0.7776,0.7772,0.7767,0.7764,0.775,0.7776,0.778,0.7803,0.7755,0.7843,0.7847,0.785,0.7895,0.7903,0.791,0,0,0,0,0,0.7766,0.7799,0.7786,0.7789,0.7799,0.7815,0.7816,0.7799,0.7778,0.7794,0.7786,0.7765,0.7799,0.7779,0.7783,0.7807,0.7842,0.7846,0.7849,0.7892,0.7902,0.791,0,0,0,0,0,0,0.7808,0.7797,0.7784,0.7815,0.7816,0.7808,0.7826,0.7809,0.7816,0.7812,0.779,0.7789,0.7818,0.7815,0.7793,0.7847,0.7817,0.7822,0.7848,0.7857,0.7864,0.7864,0.7756,0,0,0,0,0,0.7821,0.7835,0.7825,0.7854,0.7855,0.7841,0.7847,0.7834,0.7834,0.7834,0.7828,0.783,0.7841,0.7849,0.7858,0.7895,0.7894,0.7913,0.792,0.7926,0.7931,0.7952,0.7961,0.7864,0.7864,0.7864,0,0,0.7848,0.7844,0.7854,0.7862,0.7861,0.7877,0.7841,0.7858,0.787,0.7837,0.7861,0.7857,0.7857,0.7888,0.7902,0.7887,0.7957,0.7932,0.7936,0.7938,0.7957,0.7966,0.7974,0.7867,0.7867,0.7866,0,0,0.7905,0.7903,0.7928,0.7928,0.7928,0.7919,0.7925,0.7919,0.7916,0.7939,0.7915,0.7929,0.7948,0.7949,0.7953,0.8013,0.7994,0.8016,0.8054,0.8074,0.8082,0.8089,0.8111,0.8119,0.8021,0.8021,0.8021,0,0.7939,0.7961,0.7943,0.7962,0.7967,0.7939,0.7964,0.7965,0.7968,0.7972,0.7955,0.798,0.7978,0.801,0.8025,0.8028,0.8035,0.8017,0.8082,0.8089,0.8095,0.8116,0.8124,0.8024,0.8023,0.8023,0.8023,0,0.8003,0.8019,0.8038,0.8043,0.805,0.8072,0.8058,0.8067,0.8054,0.8047,0.8072,0.8069,0.8078,0.8085,0.8071,0.8116,0.8106,0.8086,0.8055,0.8107,0.8127,0.8134,0.8028,0.8027,0.8026,0.8025,0,0,0.8085,0.8081,0.8089,0.8091,0.809,0.8102,0.8123,0.8132,0.8142,0.8145,0.8163,0.8181,0.8163,0.8167,0.8154,0.8171,0.8221,0.8149,0.8149,0.8163,0.827,0.8286,0.8296,0.8208,0.821,0.8211,0.8271,0,0.8142,0.8178,0.8163,0.8201,0.8217,0.8191,0.821,0.8211,0.8205,0.8217,0.8211,0.8224,0.8199,0.8201,0.8218,0.8211,0.8242,0.8207,0.8225,0.8226,0.8227,0.8306,0.8322,0.8379,0.8278,0.8279,0.828,0,0.8212,0.8219,0.8259,0.8257,0.8262,0.828,0.8288,0.83,0.8301,0.8296,0.8301,0.8285,0.8306,0.8276,0.8306,0.8282,0.8289,0.8287,0.8289,0.829,0.8257,0.831,0.8396,0.8405,0.8292,0.8291,0.829,0,0.8269,0.8289,0.8316,0.8319,0.8316,0.8329,0.8329,0.8329,0.8336,0.8344,0.8348,0.8358,0.8363,0.8371,0.8358,0.8337,0.839,0.8358,0.8387,0.8388,0.8399,0.8399,0.8489,0.8403,0.8403,0.8403,0.8403,0,0.8334,0.8359,0.8342,0.8359,0.8387,0.837,0.8399,0.8396,0.8396,0.8412,0.839,0.8406,0.8387,0.8401,0.8391,0.8418,0.842,0.8417,0.8414,0.8419,0.842,0.8423,0.8419,0.8405,0.8405,0.8404,0.8404,0,0.8403,0.8392,0.842,0.8416,0.8416,0.8437,0.8434,0.8449,0.8442,0.8463,0.8467,0.8456,0.8471,0.8459,0.8474,0.8467,0.8503,0.8494,0.8503,0.8501,0.853,0.8528,0.8626,0.8638,0.8544,0.8545,0.8546,0,0.8445,0.8464,0.8463,0.8472,0.8474,0.8489,0.8496,0.8481,0.849,0.8494,0.851,0.8523,0.8533,0.8559,0.8553,0.8564,0.8556,0.8589,0.8557,0.8562,0.8557,0.8556,0.8559,0.8596,0.8597,0.8598,0.8599,0,0.8521,0.8515,0.8527,0.8538,0.8548,0.8556,0.8562,0.8571,0.8555,0.8566,0.8582,0.859,0.8606,0.862,0.8629,0.8629,0.8612,0.8609,0.8616,0.8622,0.8626,0.8625,0.8521,0.8607,0.8606,0.8605,0.8605,0.8604,0.8578,0.8595,0.8597,0.8612,0.8615,0.8621,0.8636,0.8632,0.8645,0.8657,0.8647,0.8666,0.8669,0.868,0.8682,0.8697,0.8683,0.8694,0.8696,0.8699,0.8704,0.8624,0.8699,0.8698,0.8698,0.8698,0.8698,0,0.8654,0.8655,0.8668,0.8678,0.869,0.8673,0.8679,0.869,0.8707,0.8711,0.8722,0.8741,0.8755,0.8751,0.8763,0.8776,0.8769,0.878,0.8779,0.878,0.8715,0.8708,0.8786,0.8786,0.8786,0.8786,0.8786,0.8786,0.8695,0.8723,0.8717,0.8747,0.8747,0.8767,0.8772,0.8778,0.8781,0.8804,0.8815,0.8812,0.8813,0.8826,0.8838,0.8837,0.8843,0.8857,0.8853,0.8793,0.8784,0.8776,0.8769,0.8859,0.8859,0.8916,0.8916,0.8917]},{"header":{"parameterUnit":"m.s-1","parameterCategory":1,"la1":30.2991,"la2":30.254,"lo1":-89.0895,"lo2":-89.0444,"dy":0.0017,"dx":0.0017,"nx":28,"ny":28,"refTime":"2025-09-19T09:00:00:Z","depth":0,"parameterNumber":3,"parameterNumberName":"V-component_of_WINDS"},"data":[0,0,0,0,0,0,0,0,0,0,0,0,0,0,0,0,0,0,0,0,0,0,0,0,0,0,0,0,0,0,0,0,0,0,0,0,0,0,0,0,0,0,0,0,0,0,0,0,0,0,0,0,0,0,0,0,0,0,-2.0528,-2.0528,0,-2.0497,-2.0497,-2.0497,-2.0464,-2.0464,-2.0463,-2.0463,-2.0431,-2.0431,-2.0431,0,0,0,0,0,0,0,0,0,0,0,0,0,-2.056,-2.0559,-2.0528,-2.0528,-2.0528,-2.0497,-2.0497,-2.0497,-2.0464,-2.0464,-2.0463,-2.0463,-2.0432,-2.0431,-2.0431,0,0,0,0,0,0,0,0,0,0,0,0,0,-2.0539,-2.0559,-2.0528,-2.0508,-2.0506,-2.0497,-2.0497,-2.0496,-2.0464,-2.0464,-2.0463,-2.0462,-2.0432,-2.0431,-2.0431,-2.044,0,0,-2.0429,-2.0428,0,0,0,0,0,0,0,0,-2.054,-2.0538,-2.0511,-2.0509,-2.0507,-2.0484,-2.0496,-2.0478,-2.0465,-2.048,-2.0463,-2.0462,-2.045,-2.0447,-2.0443,-2.0439,-2.0437,-2.0429,-2.0428,-2.0428,-2.0428,0,0,0,0,0,0,0,-2.0542,-2.0539,-2.0516,-2.0511,-2.0508,-2.05,-2.0496,-2.0493,-2.0469,-2.0479,-2.0476,-2.0473,-2.0448,-2.0444,-2.0442,-2.0437,-2.0429,-2.0428,-2.0428,-2.0427,-2.0437,-2.0438,0,0,0,0,0,0,-2.0546,-2.054,-2.0517,-2.0515,-2.0522,-2.05,-2.0496,-2.0492,-2.0469,-2.0465,-2.0474,-2.0472,-2.0445,-2.0443,-2.0441,-2.0449,-2.0428,-2.0427,-2.0427,-2.0437,-2.0437,-2.0438,0,0,0,0,0,0,-2.0547,-2.0544,-2.0518,-2.0527,-2.0523,-2.05,-2.0496,-2.0492,-2.0487,-2.0465,-2.0461,-2.0473,-2.0445,-2.0442,-2.044,-2.0448,-2.0427,-2.0426,-2.0436,-2.0437,-2.0438,-2.0467,0,0,0,0,0,0,-2.0548,-2.0545,-2.0548,-2.0527,-2.0523,-2.0518,-2.0497,-2.0492,-2.0486,-2.0483,-2.0464,-2.046,-2.0444,-2.0441,-2.044,-2.0446,-2.0426,-2.0435,-2.0436,-2.0437,-2.0465,-2.0469,-2.0472,0,0,0,0,0,-2.0549,-2.0558,-2.0549,-2.0546,-2.0527,-2.0519,-2.0516,-2.0497,-2.0487,-2.049,-2.0476,-2.046,-2.0448,-2.0441,-2.0439,-2.0446,-2.0434,-2.0436,-2.0437,-2.0463,-2.0468,-2.0472,0,0,0,0,0,0,-2.0581,-2.0555,-2.0544,-2.0547,-2.0535,-2.0513,-2.0517,-2.0503,-2.0494,-2.0492,-2.0469,-2.0465,-2.0466,-2.0456,-2.045,-2.0453,-2.0439,-2.044,-2.0459,-2.0463,-2.0467,-2.0468,-2.0425,0,0,0,0,0,-2.0588,-2.0584,-2.0562,-2.0566,-2.056,-2.054,-2.0536,-2.0522,-2.0509,-2.0504,-2.049,-2.0478,-2.0471,-2.0467,-2.0459,-2.0464,-2.0458,-2.0467,-2.0471,-2.0474,-2.0474,-2.0475,-2.0478,-2.0443,-2.0443,-2.0443,0,0,-2.0603,-2.0588,-2.0587,-2.0572,-2.0561,-2.0557,-2.0536,-2.0533,-2.0529,-2.0504,-2.0501,-2.049,-2.0475,-2.0476,-2.0476,-2.0468,-2.0483,-2.0475,-2.0478,-2.0477,-2.0476,-2.048,-2.0483,-2.0444,-2.0444,-2.0443,0,0,-2.0627,-2.0616,-2.0618,-2.0608,-2.0592,-2.0578,-2.0578,-2.0559,-2.055,-2.0547,-2.0528,-2.0523,-2.0512,-2.0502,-2.0496,-2.0516,-2.0501,-2.0514,-2.0531,-2.0531,-2.0534,-2.0536,-2.0542,-2.0545,-2.0515,-2.0515,-2.0515,0,-2.0647,-2.064,-2.062,-2.0618,-2.0611,-2.0588,-2.0589,-2.0581,-2.0563,-2.0559,-2.0551,-2.0536,-2.0524,-2.0522,-2.0527,-2.0523,-2.0522,-2.0516,-2.0535,-2.0538,-2.0539,-2.0545,-2.0547,-2.0517,-2.0517,-2.0517,-2.0516,0,-2.0665,-2.066,-2.0663,-2.0647,-2.0641,-2.064,-2.062,-2.0616,-2.0604,-2.0591,-2.0587,-2.0573,-2.0561,-2.056,-2.0548,-2.0556,-2.0551,-2.054,-2.0524,-2.0545,-2.0549,-2.0551,-2.0519,-2.0519,-2.0518,-2.0518,0,0,-2.0707,-2.0679,-2.0681,-2.0672,-2.0653,-2.0649,-2.0648,-2.0636,-2.0633,-2.0622,-2.0619,-2.061,-2.0599,-2.0591,-2.0578,-2.0579,-2.0594,-2.0567,-2.0566,-2.0571,-2.06,-2.0608,-2.061,-2.0585,-2.0585,-2.0585,-2.0601,0,-2.0726,-2.0721,-2.0704,-2.0704,-2.0699,-2.0677,-2.0675,-2.0663,-2.0651,-2.0645,-2.0632,-2.0625,-2.0612,-2.0607,-2.0606,-2.0592,-2.0599,-2.0591,-2.0581,-2.0581,-2.0583,-2.0613,-2.0621,-2.0637,-2.0602,-2.0603,-2.0603,0,-2.0748,-2.0738,-2.0738,-2.0718,-2.0715,-2.0714,-2.0702,-2.0697,-2.0682,-2.0673,-2.0665,-2.065,-2.0646,-2.0633,-2.0627,-2.0622,-2.0617,-2.0609,-2.0609,-2.0606,-2.0592,-2.0609,-2.0641,-2.0643,-2.0606,-2.0606,-2.0605,0,-2.0777,-2.0764,-2.0761,-2.0755,-2.0733,-2.0732,-2.0723,-2.0708,-2.0702,-2.0691,-2.0687,-2.0677,-2.067,-2.0662,-2.0645,-2.0637,-2.064,-2.0626,-2.0632,-2.0632,-2.0632,-2.0632,-2.0662,-2.0632,-2.0632,-2.0632,-2.0632,0,-2.08,-2.08,-2.0774,-2.0772,-2.0771,-2.0751,-2.0751,-2.074,-2.0727,-2.0722,-2.0704,-2.07,-2.0677,-2.0671,-2.0657,-2.0653,-2.0651,-2.0643,-2.0639,-2.0644,-2.0645,-2.0639,-2.0637,-2.0632,-2.0632,-2.0632,-2.0632,0,-2.0831,-2.0814,-2.0809,-2.0788,-2.0783,-2.0783,-2.0765,-2.0763,-2.075,-2.0744,-2.0742,-2.0721,-2.0712,-2.0694,-2.0681,-2.0671,-2.0671,-2.0665,-2.0675,-2.0672,-2.0679,-2.0678,-2.0705,-2.0707,-2.0677,-2.0677,-2.0678,0,-2.0846,-2.0845,-2.0824,-2.082,-2.0811,-2.0804,-2.0798,-2.0778,-2.0772,-2.0756,-2.0755,-2.0745,-2.0736,-2.0723,-2.0706,-2.0696,-2.0688,-2.0699,-2.0687,-2.0691,-2.0687,-2.0686,-2.0685,-2.0701,-2.0701,-2.0702,-2.0702,0,-2.0873,-2.0865,-2.0856,-2.0845,-2.0838,-2.0828,-2.0817,-2.0814,-2.0792,-2.0786,-2.0777,-2.077,-2.0756,-2.0745,-2.0732,-2.0722,-2.0708,-2.0706,-2.0707,-2.0711,-2.0716,-2.0712,-2.0681,-2.0705,-2.0705,-2.0705,-2.0704,-2.0704,-2.0895,-2.0894,-2.0878,-2.0869,-2.0859,-2.0849,-2.0845,-2.0832,-2.0824,-2.081,-2.08,-2.0791,-2.0776,-2.0757,-2.0748,-2.0741,-2.0734,-2.0735,-2.0735,-2.0735,-2.0737,-2.0719,-2.0739,-2.0739,-2.0738,-2.0738,-2.0738,0,-2.0921,-2.091,-2.0902,-2.0887,-2.088,-2.0868,-2.0855,-2.0849,-2.0842,-2.083,-2.0821,-2.081,-2.08,-2.0783,-2.0771,-2.0768,-2.0761,-2.0766,-2.0765,-2.0763,-2.0744,-2.0744,-2.0771,-2.0771,-2.0771,-2.0771,-2.0771,-2.0771,-2.0933,-2.0928,-2.0918,-2.0908,-2.0897,-2.0889,-2.0882,-2.0873,-2.0863,-2.0851,-2.0843,-2.0832,-2.0817,-2.0804,-2.0794,-2.0789,-2.0785,-2.0791,-2.0785,-2.0767,-2.0764,-2.0761,-2.0761,-2.0791,-2.0791,-2.0803,-2.0803,-2.0803]}]]